Regional Weather Roundup
Issued by NWS

Home | Current Version | Previous Version | Graphics & Text | Print | Product List | Glossary Off
Versions: 1 2 3 4 5 6 7 8 9 10 11 12 13 14 15 16 17 18 19 20 21 22 23 24 25 26 27 28 29 30 31 32 33 34 35 36 37 38 39 40 41 42 43 44 45 46 47 48 49 50

000
ASUS43 KBIS 280510
RWRND

NORTH DAKOTA REGIONAL WEATHER ROUNDUP
NATIONAL WEATHER SERVICE BISMARCK ND
1200 AM CDT WED SEP 28 2016

NOTE: "FAIR" INDICATES FEW OR NO CLOUDS BELOW 12,000 FEET WITH NO
SIGNIFICANT WEATHER AND/OR OBSTRUCTIONS TO VISIBILITY.


NDZ001>003-009>011-017-280600-
NORTHWEST NORTH DAKOTA

CITY           SKY/WX    TMP DP  RH WIND       PRES   REMARKS
WILLISTON      CLEAR     54  49  83 CALM      30.00R
MINOT          CLEAR     51  42  71 S3        30.03R
MINOT AFB      CLEAR     42  40  89 S2        30.02R
$$

NDZ018>021-031>035-040>046-280600-
SOUTHWEST NORTH DAKOTA

CITY           SKY/WX    TMP DP  RH WIND       PRES   REMARKS
BISMARCK       CLEAR     47  42  83 CALM      30.03R
DICKINSON      CLEAR     51  45  79 SE10      30.02R
GARRISON         N/A     47  42  83 NE5       30.03R
HETTINGER ARPT CLEAR     48  44  86 CALM      30.06R
$$

NDZ004>008-012>016-024-026-027-054-280600-
NORTHEAST NORTH DAKOTA

CITY           SKY/WX    TMP DP  RH WIND       PRES   REMARKS
GRAND FORKS    CLOUDY    50  42  74 NE7       30.05R
GRND FRKS AFB  CLOUDY    51  45  80 E5        30.06R
DEVILS LAKE    CLOUDY    44  42  93 CALM      30.07R
$$

NDZ022-023-025-028>030-036>039-047>053-280600-
SOUTHEAST NORTH DAKOTA

CITY           SKY/WX    TMP DP  RH WIND       PRES   REMARKS
FARGO          CLOUDY    49  41  74 NE8       30.03R
JAMESTOWN      CLOUDY    41  37  86 W5        30.04R
$$





USA.gov is the U.S. government's official web portal to all federal, state and local government web resources and services.